Preview of NWS' New Version of Forecast
This preview is not operational and should not be used for support decisions.

Regional Weather Roundup (RWR)

Issued by National Weather Service (NWS)

                            
000
ASUS45 KBOI 221510
RWRID 

IDAHO REGIONAL WEATHER ROUNDUP
NATIONAL WEATHER SERVICE BOISE ID
900 AM MDT SUN SEP 22 2019

NOTE: "FAIR" INDICATES FEW OR NO CLOUDS BELOW 12000 FEET
WITH NO SIGNIFICANT WEATHER AND/OR OBSTRUCTIONS TO VISIBILITY

IDZ012-014-221600-
SOUTHWEST IDAHO

  
CITY           SKY/WX    TMP DP  RH WIND       PRES   REMARKS
BOISE          SUNNY     55  40  56 SE9       30.04S                  
CALDWELL       SUNNY     51  45  79 CALM      30.04F                  
MOUNTAIN HOME  SUNNY     51  43  76 E12       30.06S                  
$$

IDZ016-017-221600-
SOUTHCENTRAL IDAHO

  
CITY           SKY/WX    TMP DP  RH WIND       PRES   REMARKS
BURLEY         SUNNY     46  36  68 CALM      30.12R                  
JEROME         SUNNY     53  37  54 E9        30.11S                  
TWIN FALLS     SUNNY     56  37  49 SE8       30.11S                  
$$

IDZ019>023-221600-
SOUTHEAST IDAHO

  
CITY           SKY/WX    TMP DP  RH WIND       PRES   REMARKS
IDAHO FALLS    SUNNY     46  39  76 SW7       30.17R                  
POCATELLO      SUNNY     47  39  74 N3        30.15S                  
REXBURG        SUNNY     46  39  76 S3        30.16S                  
$$

IDZ006-010-011-018-031-032-221600-
CENTRAL IDAHO MOUNTAINS

  
CITY           SKY/WX    TMP DP  RH WIND       PRES   REMARKS
MCCALL         SUNNY     40  35  83 CALM      30.08F                  
HAILEY         SUNNY     43  36  75 W8        30.17R                  
STANLEY          N/A     31  28  89 CALM      30.18S                  
SALMON         SUNNY     49  43  80 CALM      30.11S                  
CHALLIS        SUNNY     45  36  70 CALM      30.14S                  
$$

IDZ002-004-006-007-026-221600-
NORTHERN IDAHO

  
CITY           SKY/WX    TMP DP  RH WIND       PRES   REMARKS
LEWISTON       SUNNY     57  47  69 E6        29.93S                  
LOWELL           N/A     50  47  89 CALM      30.04S                  
COEUR D'ALENE  SUNNY     46  43  89 NE6       29.96S                  
MULLAN PASS    SUNNY     45  39  79 S8        30.04S                  
$$